Regional Weather Roundup
Issued by NWS

Home | Current Version | Previous Version | Graphics & Text | Print | Product List | Glossary On
Versions: 1 2 3 4 5 6 7 8 9 10 11 12 13 14 15 16 17 18 19 20 21 22 23 24 25 26 27 28 29 30 31 32 33 34 35 36 37 38 39 40 41 42 43 44 45 46 47 48 49 50
000
ASUS45 KSLC 140510
RWRUT

UTAH REGIONAL WEATHER ROUNDUP
NATIONAL WEATHER SERVICE SALT LAKE CITY UT
1100 PM MDT SAT SEP 13 2014

UTZ001>011-023>025-140600-

NORTHERN UTAH

CITY           SKY/WX    TMP DP  RH WIND       PRES   REMARKS
HILL AFB       MOCLDY    68  35  29 E14       30.01S
LOGAN          CLEAR     55  42  61 CALM      30.01R
OGDEN          MOCLDY    65  37  35 S3        29.99R
PROVO AIRPORT  MOCLDY    61  46  59 SE5       30.04R
SALT LAKE CITY MOCLDY    69  35  28 SE12      29.97S
VERNAL         PTCLDY    59  39  47 NW7       30.10S
WENDOVER       PTCLDY    66  32  28 CALM      29.97S
HEBER CITY     MOCLDY    52  41  66 CALM      30.12R
WEST JORDAN    CLEAR     68  36  30 SW8       30.02R

$$

UTZ012>022-026-027-140600-

SOUTHERN UTAH

CITY           SKY/WX    TMP DP  RH WIND       PRES   REMARKS
BRYCE CANYON   PTCLDY    48  40  73 W6        30.28R
CEDAR CITY     CLEAR     66  33  29 SE9       30.11R
MILFORD        PTCLDY    70  36  28 S12       30.04S
MOAB/CYNLANDS  CLEAR     66  38  35 CALM      30.03R
PRICE          PTCLDY    62  30  29 NW5       30.14R
ST GEORGE      MOCLDY    79  39  24 CALM      29.93R
KANAB            N/A     66  36  32 CALM      30.11R

$$

REGIONAL REPORTS     COLORADO/ARIZONA

CITY           SKY/WX    TMP DP  RH WIND       PRES   REMARKS
CRAIG, CO      PTCLDY    50  42  74 CALM      30.17R
GRAND JUNCTION PTCLDY    61  37  41 E7        30.08S
RIFLE          CLEAR     54  37  52 CALM      30.16R
MONTROSE       CLEAR     59  38  45 SE10      30.18S
CORTEZ         CLEAR     53  39  59 NE6       30.19R
PAGE, AZ       CLEAR     79  39  23 S8        30.01S
GRAND CANYON   PTCLDY    56  45  66 NE3       30.23R
KINGMAN        CLEAR     75  52  44 S10       29.97R
FLAGSTAFF      PTCLDY    56  46  69 CALM      30.26S

$$

REGIONAL REPORTS    NEVADA/IDAHO/WYOMING

CITY           SKY/WX    TMP DP  RH WIND       PRES   REMARKS
LAS VEGAS, NV  CLEAR     91  43  18 SW9       29.80R
ELY            PTCLDY    63  25  23 S13       30.12R
ELKO           PTCLDY    62  26  25 CALM      30.02R
POCATELLO, ID  CLEAR     62  30  29 SW3       29.98S
BURLEY         PTCLDY    56  40  55 SW6       29.97R
EVANSTON, WY   MOCLDY    58  29  33 S6        30.19R
ROCK SPRINGS   PTCLDY    58  21  24 SW9       30.17R

$$


USA.gov is the U.S. government's official web portal to all federal, state and local government web resources and services.